Ontario, CA

12:53 PM PDT on September 21, 2017 (GMT -0700)
Ontario International

Weather History for KONT - March, 2013

Change the Weather History Date:

Tuesday, March 26, 2013

  Actual Average Record
Temperature  
Mean Temperature 64 °F 59 °F  
Max Temperature 77 °F 71 °F 93 °F (2015)
Min Temperature 50 °F 48 °F 41 °F (2005)
Degree Days  
Heating Degree Days 1 6  
Month to date heating degree days 96 183  
Since 1 July heating degree days 1204 1340  
Cooling Degree Days 0 0  
Month to date cooling degree days 33 6  
Year to date cooling degree days 34 12  
Growing Degree Days 13 (Base 50)    
Moisture  
Dew Point 46 °F    
Average Humidity 60    
Maximum Humidity 96    
Minimum Humidity 23    
Precipitation  
Precipitation 0.00 in 0.05 in 0.27 in (2012)
Month to date precipitation 0.58 2.11  
Year to date precipitation 2.42 8.81  
Since 1 July precipitation 5.19  
Snow  
Snow 0.00 in - - ()
Month to date snowfall 0.0  
Year to date snowfall 0.0  
Snow Depth 0.00 in    
Sea Level Pressure  
Sea Level Pressure 29.92 in    
Wind  
Wind Speed 3 mph (WSW)    
Max Wind Speed 17 mph    
Max Gust Speed 20 mph    
Visibility 7 miles    
Events Fog    
T = Trace of Precipitation, MM = Missing Value Source: NWS Daily Summary

Daily Weather History Graph

Daily Weather History Graph

Search for Another Location

Airport or City:

Trip Planner

Search our weather history database for the weather conditions in past years. The results will help you decide how hot, cold, wet, or windy it might be!

Date:

Astronomy

Mar. 26, 2013 Rise Set
Actual Time 6:45 AM PDT 7:06 PM PDT
Civil Twilight 6:20 AM PDT 7:31 PM PDT
Nautical Twilight 5:51 AM PDT 8:01 PM PDT
Astronomical Twilight 5:21 AM PDT 8:31 PM PDT
Moon 6:47 PM PDT (3/26) 6:04 AM PDT (3/26)
Length of Visible Light 13h 11m
Length of Day
12h 21m
Full, 100% of the Moon is Illuminated
Mar 26
Full
Mar 27
Full
Apr 2
Last Quarter
Apr 10
New
Apr 18
First Quarter

Hourly Weather History & Observations

Time (PDT) Temp. Dew Point Humidity Pressure Visibility Wind Dir Wind Speed Gust Speed Precip Events Conditions
12:53 AM 55.9 °F 48.0 °F 75% 29.92 in 9.0 mi Calm Calm - N/A   Mostly Cloudy
1:53 AM 55.9 °F 48.9 °F 77% 29.91 in 9.0 mi Calm Calm - N/A   Scattered Clouds
2:53 AM 55.0 °F 48.0 °F 77% 29.89 in 8.0 mi Calm Calm - N/A   Mostly Cloudy
3:53 AM 54.0 °F 48.0 °F 80% 29.89 in 6.0 mi Calm Calm - N/A   Haze
4:53 AM 53.1 °F 46.9 °F 80% 29.89 in 6.0 mi Calm Calm - N/A   Haze
5:02 AM 53.6 °F 46.4 °F 77% 29.92 in 6.0 mi Calm Calm - N/A   Haze
5:53 AM 53.1 °F 48.9 °F 86% 29.91 in 5.0 mi Calm Calm - N/A   Mostly Cloudy
6:53 AM 51.1 °F 48.0 °F 89% 29.92 in 3.0 mi Calm Calm - N/A   Scattered Clouds
7:01 AM 51.8 °F 48.2 °F 88% 29.94 in 2.5 mi WSW 3.5 mph - N/A Fog Scattered Clouds
7:10 AM 51.8 °F 48.2 °F 88% 29.94 in 0.8 mi WSW 4.6 mph - N/A Fog Scattered Clouds
7:43 AM 51.8 °F 48.2 °F 88% 29.95 in 0.8 mi West 4.6 mph - N/A   Mostly Cloudy
7:53 AM 51.1 °F 50.0 °F 96% 29.94 in 1.0 mi Calm Calm - N/A   Mostly Cloudy
8:25 AM 53.6 °F 50.0 °F 88% 29.96 in 2.0 mi Calm Calm - N/A   Partly Cloudy
8:53 AM 54.0 °F 48.9 °F 83% 29.95 in 3.0 mi Calm Calm - N/A   Haze
9:53 AM 57.9 °F 50.0 °F 75% 29.95 in 3.0 mi SSW 3.5 mph - N/A   Haze
10:53 AM 63.0 °F 50.0 °F 63% 29.94 in 4.0 mi Variable 3.5 mph - N/A   Haze
11:53 AM 68.0 °F 46.9 °F 47% 29.93 in 5.0 mi SSW 4.6 mph - N/A   Haze
12:53 PM 72.0 °F 42.1 °F 34% 29.91 in 10.0 mi SSW 3.5 mph - N/A   Mostly Cloudy
1:53 PM 73.9 °F 41.0 °F 30% 29.90 in 10.0 mi West 6.9 mph - N/A   Scattered Clouds
2:53 PM 75.9 °F 36.0 °F 23% 29.88 in 10.0 mi WSW 9.2 mph 17.3 mph N/A   Scattered Clouds
3:53 PM 75.0 °F 37.9 °F 26% 29.87 in 10.0 mi SW 12.7 mph 19.6 mph N/A   Mostly Cloudy
4:53 PM 73.0 °F 39.0 °F 29% 29.86 in 10.0 mi WSW 12.7 mph - N/A   Mostly Cloudy
5:53 PM 70.0 °F 43.0 °F 38% 29.86 in 10.0 mi West 10.4 mph - N/A   Mostly Cloudy
6:53 PM 66.0 °F 43.0 °F 43% 29.88 in 10.0 mi WSW 11.5 mph - N/A   Mostly Cloudy
7:53 PM 63.0 °F 46.0 °F 54% 29.90 in 10.0 mi West 8.1 mph - N/A   Scattered Clouds
8:53 PM 60.1 °F 50.0 °F 69% 29.91 in 10.0 mi West 8.1 mph - N/A   Scattered Clouds
9:53 PM 59.0 °F 48.9 °F 69% 29.94 in 10.0 mi WSW 3.5 mph - N/A   Scattered Clouds
10:53 PM 57.0 °F 48.9 °F 74% 29.95 in 10.0 mi West 5.8 mph - N/A   Mostly Cloudy
11:53 PM 55.0 °F 48.9 °F 80% 29.94 in 8.0 mi West 10.4 mph - N/A   Mostly Cloudy